SCP
0 0 0 0 0 0 0 0 0 0 0 0 0 0 0 0 0 0 0 0 0 0 0 0 0 0 0 0 0 0 0 0 0 0 0 0 0 0 0 -0 -0 -0 -0
0 0 0 0 0 0 0 0 0 0 0 0 0 0 0 0 0 0 0 0 0 0 0 0 0 0 0 0 0 0 0 0 0 0 0 0 0 0 0 0 -0 -0 -0
0 0 0 -0 -0 0 0 0 0 0 0 0 0 0 0 0 0 0 0 0 0 0 0 0 0 0 0 0 0 0 0 0 0 0 0 0 0 0 0 0 0 0 0
0 0 -0 -0 0 0 0 0 0 0 0 0 0 0 0 0 0 0 0 0 0 0 0 0 0 0 0 0 0 0 0 0 0 0 0 0 0 0 0 0 0 0 0
0 0 0 0 0 0 0 0 0 0 0 0 0 0 0 0 0 0 0 0 0 0 0 0 0 0 0 0 0 0 0 0 0 0 0 0 0 0 0 0 0 0 0
0 0 0 0 0 0 0 0 0 0 0 0 0 0 0 0 0 0 0 0 0 0 0 0 0 0 0 0 0 0 0 0 0 0 0 0 0 0 0 0 0 0 0
0 0 0 0 0 0 0 0 0 0 0 0 0 0 0 0 0 0 0 0 0 0 0 0 0 0 0 0 0 0 0 0 0 0 0 0 0 0 0 0 0 0 0
0 0 0 0 0 0 0 0 0 0 0 0 0 0 0 0 0 0 0 0 0 0 0 0 0 0 0 0 0 0 0 0 0 0 0 0 0 0 0 0 0 0 0
0 0 0 0 0 0 0 0 0 0 0 0 0 0 0 0 0 0 0 0 0 0 0 0 0 0 0 0 0 0 0 0 0 0 0 0 0 0 0 0 0 0 0
0 0 0 0 0 0 0 0 0 0 0 0 0 0 0 0 0 0 0 0 0 0 0 0 0 0 0 0 0 0 0 0 0 0 0 0 0 0 0 0 0 0 0
0 0 0 0 0 0 0 0 0 0 0 0 0 0 0 0 0 0 0 0 0 0 0 0 0 0 0 0 0 0 0 0 0 0 0 0 0 0 0 0 0 0 0
0 0 0 0 0 0 0 0 0 0 0 0 0 0 0 0 0 0 0 0 0 0 0 0 0 0 0 0 0 0 0 0 0 0 0 0 0 0 0 0 0 0 0
0 0 0 0 0 0 0 0 0 0 0 0 0 0 0 0 0 0 0 0 0 0 0 0 0 0 0 0 0 0 0 0 0 0 0 0 0 0 0 0 0 0 0
0 0 0 0 0 0 0 0 0 0 0 0 0 0 0 0 0 0 0 0 0 0 0 0 0 0 0 0 0 0 0 0 0 0 0 0 0 0 0 0 0 0 0
0 0 0 0 0 0 0 0 0 0 0 0 0 0 0 0 0 0 0 0 0 0 0 0 0 0 0 0 0 0 0 0 0 0 0 0 0 0 0 0 0 0 0
0 0 0 0 0 0 0 0 0 0 0 0 0 0 0 0 0 0 0 0 0 0 0 0 0 0 0 0 0 0 0 0 0 0 0 0 0 0 0 0 0 0 0
0 0 0 0 0 0 0 0 0 0 0 0 0 0 0 0 0 0 0 0 0 0 0 0 0 0 0 0 0 0 0 0 0 0 0 0 0 0 0 0 0 0 0
0 0 0 0 0 0 0 0 0 0 0 0 0 0 0 0 0 0 0 0 0 0 0 0 0 0 0 0 0 0 0 0 0 0 0 0 0 0 0 0 0 0 0
0 0 0 0 0 0 0 0 0 0 0 0 0 0 0 0 0 0 0 0 0 0 0 0 0 0 0 0 0 0 0 0 0 0 0 0 0 0 0 0 0 0 0
0 0 0 0 0 0 0 0 0 0 0 0 0 0 0 0 0 0 0 0 0 0 0 0 0 0 0 0 0 0 0 0 0 0 0 -0 -0 -0 -0 -0 -0 0 0
0 0 0 0 0 0 0 0 0 0 0 0 0 0 0 0 0 0 0 0 0 0 0 0 0 0 0 0 0 0 0 0 0 0 0 -0 -0 -0 -0 -0 -0 0 0
0 0 0 0 0 0 0 0 0 0 0 0 0 0 0 0 0 0 0 0 0 0 0 0 0 0 0 0 0 0 0 0 0 0 0 0 0 0 -0 -0 -0 0 0
0 0 0 0 0 0 0 0 0 0 0 0 0 0 0 0 0 0 0 0 0 0 0 0 0 0 0 0 0 0 0 0 0 0 0 0 0 0 0 0 0 0 0
0 0 0 0 0 0 0 0 0 0 0 0 0 0 0 0 0 0 0 0 0 0 0 0 0 0 0 0 0 0 0 0 0 0 0 0 0 0 0 0 0 0 0
0 0 0 0 0 0 0 0 0 0 0 0 0 0 0 0 0 0 0 0 0 0 0 0 0 0 0 0 0 0 0 0 0 0 0 0 0 0 0 0 0 0 0
0 0 0 0 0 0 0 0 0 0 0 0 0 0 0 0 0 0 0 0 0 0 0 0 0 0 0 0 0 0 0 0 0 0 0 0 0 0 0 0 0 0 0
Wind_Speed
3 3 3 3 3 3 3 3 3 3 4 4 4 4 4 4 3 3 3 4 3 3 4 4 5 5 4 4 4 4 4 5 9 8 5 5 7 7 7 6 6 6 7
3 3 2 3 3 3 3 4 4 4 4 4 5 5 5 5 4 4 4 4 4 4 4 4 5 4 5 4 4 5 5 5 7 11 8 6 7 7 7 7 7 7 7
2 2 2 2 3 3 3 4 4 4 4 4 4 5 5 5 5 5 4 4 4 4 4 4 5 5 5 5 5 5 5 6 6 8 9 6 5 6 7 7 7 6 8
2 2 2 2 2 3 3 3 4 4 4 4 4 4 4 5 5 5 5 5 5 5 5 5 5 5 6 6 6 6 6 7 6 7 7 6 6 6 6 6 7 6 7
2 2 2 2 3 3 3 4 4 4 4 4 4 4 4 4 4 5 5 5 5 5 5 5 5 6 8 7 6 6 6 6 6 6 6 7 6 7 7 6 8 7 7
2 2 3 3 3 3 4 4 4 4 4 4 4 4 4 4 7 9 7 5 5 5 6 6 5 5 8 9 10 10 9 7 7 6 6 7 8 8 7 7 7 8 7
2 2 3 3 3 4 4 4 4 4 4 4 4 4 4 5 9 9 9 6 5 5 5 6 5 5 6 6 8 9 9 10 10 7 7 8 8 8 8 9 8 9 8
2 2 2 3 3 3 3 4 4 4 4 4 4 5 5 5 9 10 10 6 4 4 5 5 6 6 6 7 7 7 6 7 8 6 5 7 7 7 7 8 9 9 8
2 2 2 2 2 3 3 4 4 4 4 4 4 4 5 6 9 10 10 5 4 5 5 5 5 6 8 11 8 7 7 7 8 10 10 9 11 12 10 6 6 6 7
2 2 2 2 2 3 3 4 4 3 4 4 4 4 5 5 8 10 10 4 4 4 4 5 6 8 10 11 7 6 7 7 7 7 8 8 8 8 10 6 5 6 6
1 2 2 2 2 3 3 3 3 3 4 4 4 4 4 5 7 9 10 5 4 4 4 4 5 10 11 12 9 6 8 9 6 6 6 6 5 5 5 5 5 5 6
0 1 2 2 2 2 2 3 3 3 3 3 4 4 3 4 6 8 10 9 8 5 4 4 5 10 12 12 9 9 11 9 5 5 5 5 5 5 6 6 6 6 6
1 2 2 2 2 2 2 2 2 2 2 3 3 3 4 3 5 8 9 10 10 5 4 7 9 11 11 8 9 11 8 5 4 4 5 5 5 6 6 5 6 6 6
1 2 2 2 2 2 2 2 2 2 2 3 3 3 3 3 3 4 4 5 6 6 5 5 8 9 8 8 7 7 5 4 4 4 5 5 5 5 5 5 6 6 6
2 2 2 2 2 2 2 2 2 2 3 3 3 3 3 4 4 7 6 4 4 4 4 3 3 4 4 4 4 4 4 4 4 4 4 5 5 5 5 5 5 5 5
3 3 2 2 2 2 2 3 4 4 6 6 6 5 4 6 8 8 8 8 8 7 4 3 3 4 4 5 5 5 4 4 4 5 5 5 5 5 6 5 5 5 5
4 4 3 3 2 2 2 2 3 4 5 6 6 7 7 7 7 8 8 7 7 7 3 3 3 4 4 4 5 5 5 5 5 5 5 5 5 5 5 5 5 5 5
4 4 3 3 3 3 3 2 2 2 3 4 5 7 8 8 7 7 7 5 4 4 2 2 3 4 4 4 5 5 5 5 4 4 4 4 4 4 5 5 5 5 6
4 3 3 3 3 3 2 2 2 2 3 3 3 5 6 7 6 6 5 2 2 3 3 3 3 3 4 4 4 5 5 5 5 4 4 4 4 4 4 5 5 6 6
4 5 3 3 3 2 2 2 3 3 3 3 3 3 2 2 2 3 2 2 2 3 3 4 4 4 4 4 4 4 5 5 4 4 4 4 4 4 4 5 5 5 5
4 4 4 3 3 3 3 3 3 3 3 4 4 4 4 2 3 3 3 3 3 3 4 4 4 4 4 4 4 4 5 5 4 4 4 4 4 4 4 4 5 5 5
4 4 4 4 4 3 3 3 3 4 4 4 4 4 6 3 3 3 3 3 3 3 3 3 4 4 4 4 4 4 5 5 5 4 4 4 4 4 4 4 5 5 5
4 4 4 4 4 4 4 4 4 4 4 4 4 3 3 3 3 4 4 4 3 3 3 3 4 4 4 4 4 4 5 5 5 4 4 4 4 4 4 4 5 6 6
5 5 5 4 4 4 4 4 4 4 4 4 4 4 4 4 4 4 4 4 3 3 3 3 4 6 7 6 4 4 4 5 5 4 5 5 5 4 4 5 5 6 6
5 5 5 5 5 5 4 4 5 5 5 5 4 4 4 4 4 4 4 4 4 4 5 5 4 5 7 8 7 6 7 8 7 5 4 4 5 5 5 6 5 6 6
5 5 5 4 5 5 5 5 5 5 5 5 4 5 5 5 5 4 4 4 4 4 5 4 5 7 8 7 8 9 9 9 8 7 5 4 5 5 5 5 6 6 6
Wind_Direction
11 10 7 358 4 7 3 1 359 355 350 346 343 338 336 335 334 330 324 326 324 326 326 325 318 315 310 308 302 294 289 287 285 293 298 301 302 305 309 307 306 301 301
6 9 2 357 6 6 2 1 360 354 351 349 345 344 345 341 341 337 328 327 325 322 323 322 317 319 317 312 307 300 294 291 287 293 299 305 307 307 308 308 315 314 308
6 2 355 354 3 5 1 358 355 351 349 350 349 345 340 339 341 338 331 328 326 322 322 319 317 320 313 310 307 302 298 298 293 292 296 304 308 312 313 312 309 308 310
6 356 351 353 0 359 357 353 349 348 345 342 342 339 335 333 335 335 337 333 327 325 322 316 315 313 309 310 306 303 303 300 298 295 297 303 309 313 313 314 313 313 312
9 1 350 355 1 1 358 353 350 347 341 335 338 339 336 330 327 333 331 325 323 322 319 315 314 315 314 311 309 307 305 298 296 296 298 303 306 315 314 314 309 312 309
7 354 353 3 5 359 353 348 346 340 337 339 339 334 330 326 326 329 327 321 319 317 316 316 314 315 319 318 315 314 313 305 302 300 297 299 304 308 311 310 310 312 308
2 359 357 3 1 352 346 343 337 334 333 334 336 333 326 322 325 329 331 322 314 314 316 317 319 324 321 318 319 321 321 320 313 301 298 300 304 307 307 305 306 306 302
352 359 0 360 349 342 340 333 328 329 327 326 328 328 321 322 329 332 331 324 314 313 315 317 317 319 321 321 322 321 319 321 319 317 306 305 309 309 306 301 300 300 296
335 336 340 338 332 332 327 323 323 324 322 322 326 326 322 321 327 330 330 321 317 318 321 324 318 315 321 325 326 322 320 321 327 325 321 319 320 320 320 317 314 310 306
296 308 320 323 318 311 308 312 315 314 311 318 319 323 323 321 325 331 332 321 317 321 325 326 326 326 327 329 327 322 317 317 323 326 329 330 326 325 330 327 317 310 308
300 313 315 314 307 304 308 313 315 314 318 320 319 324 324 325 326 332 333 327 317 321 324 325 327 332 333 333 330 324 318 320 321 319 319 322 324 330 335 335 329 313 304
298 291 296 305 305 308 309 310 313 314 320 322 322 320 324 328 330 330 333 332 326 322 319 319 323 328 332 334 334 331 331 330 322 319 321 322 325 328 327 324 318 309 298
259 273 288 298 296 295 292 296 312 315 314 312 313 311 318 327 327 329 332 333 332 328 319 319 325 330 334 338 340 337 337 331 322 321 319 318 320 316 317 317 317 314 309
231 267 275 277 287 294 289 285 284 289 294 298 304 306 311 314 317 324 325 327 330 328 328 332 336 338 338 338 337 338 334 328 321 314 311 313 315 316 317 321 321 322 323
232 247 257 257 260 269 271 270 275 271 277 279 280 282 292 298 307 318 323 320 321 319 334 341 341 338 339 337 338 338 334 332 329 320 314 313 314 316 319 323 319 321 319
227 237 242 248 253 259 272 294 295 297 302 303 306 308 301 307 314 320 325 329 332 335 345 340 333 331 328 328 329 328 330 329 326 321 314 309 311 314 317 321 320 319 318
225 233 237 240 243 248 255 263 290 304 303 306 310 314 315 316 318 321 326 335 339 346 356 334 323 321 320 320 321 318 318 319 319 316 313 313 313 314 317 319 322 323 319
229 232 231 232 233 236 241 248 254 270 293 300 302 307 315 317 321 325 328 340 342 352 340 316 309 311 312 312 315 314 313 317 318 315 312 312 314 312 312 314 317 317 317
221 227 225 228 230 233 238 241 246 253 265 284 301 302 307 310 314 320 338 352 314 310 307 299 296 298 302 303 305 308 307 307 309 310 309 310 311 312 309 311 314 316 314
221 229 221 220 225 226 227 230 238 244 253 262 268 278 294 308 300 298 310 300 286 287 290 291 293 293 294 296 300 304 306 303 305 306 308 310 309 306 304 307 309 312 311
217 222 216 218 221 223 224 228 232 235 243 253 260 266 278 265 265 269 275 278 276 279 283 286 290 293 294 295 297 298 299 298 298 301 304 305 306 304 302 301 302 302 303
211 212 211 218 222 223 228 230 232 237 243 252 265 270 270 271 265 266 267 271 272 271 271 274 281 282 282 285 291 295 295 296 296 297 298 300 301 300 301 301 303 305 307
208 213 216 219 220 222 227 230 234 238 244 249 254 258 256 255 258 262 266 270 273 275 276 272 277 283 285 285 283 281 282 284 286 285 287 291 293 294 295 296 299 304 306
208 213 218 221 220 222 227 233 236 240 242 245 246 247 249 252 255 259 263 267 271 273 273 272 272 276 284 290 288 284 278 278 278 272 267 270 279 285 287 290 294 295 299
209 213 217 220 222 225 229 234 238 241 243 244 243 247 250 251 254 256 258 261 265 269 272 273 274 276 280 283 283 284 284 284 282 272 264 263 269 273 278 283 287 294 297
213 215 219 221 224 226 228 234 239 242 244 245 244 245 247 248 251 254 256 258 265 271 274 274 272 276 279 281 281 284 283 281 276 267 256 255 261 268 274 280 285 290 295